| time (UTC) | temp C | wind direction | speed KPH | gust KPH | rain 1hr cm | rain 24hr cm | rain mn cm | humidity % | barometer mb |
| 20260510194806 | 16 | 352 | 1.6 | 9.7 | 0.00 | 0.00 | 0.00 | 33 | 1020.4 |
| 20260510194028 | 16 | 9 | 1.6 | 9.7 | 0.00 | 0.00 | 0.00 | 32 | 1020.5 |
| 20260510193522 | 16 | 159 | 1.6 | 11.3 | 0.00 | 0.00 | 0.00 | 34 | 1020.4 |
| 20260510193017 | 16 | 106 | 1.6 | 11.3 | 0.00 | 0.00 | 0.00 | 32 | 1020.4 |
| 20260510192511 | 16 | 128 | 1.6 | 8.0 | 0.00 | 0.00 | 0.00 | 37 | 1020.4 |
| 20260510192237 | 16 | 359 | 1.6 | 8.0 | 0.00 | 0.00 | 0.00 | 34 | 1020.3 |
| 20260510191731 | 16 | 148 | 1.6 | 8.0 | 0.00 | 0.00 | 0.00 | 32 | 1020.3 |
| 20260510190953 | 16 | 316 | 3.2 | 9.7 | 0.00 | 0.00 | 0.00 | 34 | 1020.3 |
| 20260510190718 | 16 | 33 | 3.2 | 12.9 | 0.00 | 0.00 | 0.00 | 36 | 1020.3 |
| 20260510185941 | 16 | 97 | 3.2 | 12.9 | 0.00 | 0.00 | 0.00 | 39 | 1020.4 |
| 20260510185434 | 16 | 326 | 3.2 | 11.3 | 0.00 | 0.00 | 0.00 | 33 | 1020.3 |
| 20260510184929 | 16 | 128 | 1.6 | 11.3 | 0.00 | 0.00 | 0.00 | 38 | 1020.2 |
| 20260510184422 | 16 | 208 | 1.6 | 11.3 | 0.00 | 0.00 | 0.00 | 39 | 1020.4 |
| 20260510183917 | 15 | 193 | 1.6 | 11.3 | 0.00 | 0.00 | 0.00 | 39 | 1020.3 |
| 20260510183643 | 15 | 354 | 1.6 | 11.3 | 0.00 | 0.00 | 0.00 | 33 | 1020.4 |
| 20260510183135 | 15 | 113 | 1.6 | 11.3 | 0.00 | 0.00 | 0.00 | 37 | 1020.4 |
| 20260510182359 | 15 | 309 | 1.6 | 11.3 | 0.00 | 0.00 | 0.00 | 36 | 1020.4 |
| 20260510182123 | 15 | 36 | 1.6 | 9.7 | 0.00 | 0.00 | 0.00 | 35 | 1020.2 |
| 20260510181618 | 15 | 353 | 1.6 | 9.7 | 0.00 | 0.00 | 0.00 | 37 | 1020.4 |
| 20260510180840 | 15 | 19 | 1.6 | 17.7 | 0.00 | 0.00 | 0.00 | 35 | 1020.4 |
| 20260510180335 | 15 | 11 | 3.2 | 17.7 | 0.00 | 0.00 | 0.00 | 40 | 1020.5 |
| 20260510175829 | 15 | 144 | 4.8 | 17.7 | 0.00 | 0.00 | 0.00 | 36 | 1020.3 |
| 20260510175322 | 15 | 176 | 6.4 | 17.7 | 0.00 | 0.00 | 0.00 | 37 | 1020.2 |
| 20260510174817 | 15 | 215 | 3.2 | 14.5 | 0.00 | 0.00 | 0.00 | 38 | 1020.2 |
| 20260510174541 | 15 | 101 | 1.6 | 12.9 | 0.00 | 0.00 | 0.00 | 39 | 1020.3 |
| 20260510173805 | 15 | 0 | 1.6 | 12.9 | 0.00 | 0.00 | 0.00 | 35 | 1020.3 |
| 20260510173258 | 15 | 91 | 1.6 | 8.0 | 0.00 | 0.00 | 0.00 | 36 | 1020.4 |
| 20260510172753 | 15 | 224 | 1.6 | 12.9 | 0.00 | 0.00 | 0.00 | 38 | 1020.3 |
| 20260510172247 | 15 | 291 | 1.6 | 12.9 | 0.00 | 0.00 | 0.00 | 35 | 1020.2 |
| 20260510171741 | 15 | 335 | 1.6 | 9.7 | 0.00 | 0.00 | 0.00 | 41 | 1020.3 |
| 20260510171234 | 14 | 229 | 3.2 | 11.3 | 0.00 | 0.00 | 0.00 | 40 | 1020.1 |
| 20260510170728 | 15 | 347 | 1.6 | 11.3 | 0.00 | 0.00 | 0.00 | 39 | 1020.1 |
| 20260510170223 | 14 | 345 | 1.6 | 12.9 | 0.00 | 0.00 | 0.00 | 40 | 1020.3 |
| 20260510165716 | 14 | 124 | 1.6 | 12.9 | 0.00 | 0.00 | 0.00 | 39 | 1020.3 |
| 20260510165210 | 14 | 86 | 1.6 | 9.7 | 0.00 | 0.00 | 0.00 | 37 | 1020.3 |
| 20260510164705 | 14 | 324 | 3.2 | 11.3 | 0.00 | 0.00 | 0.00 | 43 | 1020.3 |
| 20260510164158 | 14 | 280 | 4.8 | 14.5 | 0.00 | 0.00 | 0.00 | 44 | 1020.4 |
| 20260510163653 | 14 | 134 | 1.6 | 14.5 | 0.00 | 0.00 | 0.00 | 42 | 1020.3 |
| 20260510163146 | 13 | 121 | 0.0 | 6.4 | 0.00 | 0.00 | 0.00 | 43 | 1020.4 |
| 20260510162911 | 12 | 39 | 1.6 | 9.7 | 0.00 | 0.00 | 0.00 | 45 | 1020.4 |
| 20260510162135 | 12 | 79 | 1.6 | 9.7 | 0.00 | 0.00 | 0.00 | 43 | 1020.4 |
| 20260510161629 | 12 | 9 | 1.6 | 9.7 | 0.00 | 0.00 | 0.00 | 42 | 1020.5 |
| 20260510161123 | 12 | 47 | 1.6 | 3.2 | 0.00 | 0.00 | 0.00 | 47 | 1020.4 |
| 20260510160617 | 12 | 13 | 1.6 | 9.7 | 0.00 | 0.00 | 0.00 | 46 | 1020.3 |
| 20260510160110 | 12 | 8 | 1.6 | 9.7 | 0.00 | 0.00 | 0.00 | 46 | 1020.4 |
| 20260510155604 | 12 | 14 | 1.6 | 6.4 | 0.00 | 0.00 | 0.00 | 45 | 1020.4 |
| 20260510155326 | 12 | 311 | 1.6 | 14.5 | 0.00 | 0.00 | 0.00 | 45 | 1020.4 |
| 20260510154821 | 12 | 333 | 1.6 | 14.5 | 0.00 | 0.00 | 0.00 | 47 | 1020.3 |
| 20260510154042 | 12 | 7 | 1.6 | 9.7 | 0.00 | 0.00 | 0.00 | 49 | 1020.3 |
| 20260510153536 | 12 | 93 | 3.2 | 9.7 | 0.00 | 0.00 | 0.00 | 50 | 1020.3 |
| 20260510153031 | 12 | 28 | 3.2 | 8.0 | 0.00 | 0.00 | 0.00 | 53 | 1020.3 |
| 20260510152524 | 12 | 207 | 1.6 | 9.7 | 0.00 | 0.00 | 0.00 | 50 | 1020.1 |
| 20260510152019 | 11 | 159 | 1.6 | 6.4 | 0.00 | 0.00 | 0.00 | 51 | 1020.2 |
| 20260510151743 | 11 | 124 | 0.0 | 6.4 | 0.00 | 0.00 | 0.00 | 51 | 1020.3 |
| 20260510151237 | 11 | 129 | 0.0 | 3.2 | 0.00 | 0.00 | 0.00 | 52 | 1020.2 |
| 20260510150501 | 11 | 150 | 0.0 | 3.2 | 0.00 | 0.00 | 0.00 | 52 | 1020.3 |
| 20260510145954 | 11 | 105 | 0.0 | 4.8 | 0.00 | 0.00 | 0.00 | 55 | 1020.3 |
| 20260510145448 | 11 | 229 | 0.0 | 6.4 | 0.00 | 0.00 | 0.00 | 54 | 1020.1 |
| 20260510144943 | 11 | 12 | 0.0 | 6.4 | 0.00 | 0.00 | 0.00 | 56 | 1020.1 |
| 20260510144436 | 10 | 15 | 0.0 | 3.2 | 0.00 | 0.00 | 0.00 | 58 | 1020.2 |
| 20260510143930 | 10 | 358 | 0.0 | 3.2 | 0.00 | 0.00 | 0.00 | 57 | 1020.1 |
| 20260510143425 | 10 | 11 | 0.0 | 3.2 | 0.00 | 0.00 | 0.00 | 59 | 1020.1 |
| 20260510142919 | 10 | 7 | 0.0 | 1.6 | 0.00 | 0.00 | 0.00 | 59 | 1020.0 |
| 20260510142412 | 10 | 32 | 0.0 | 1.6 | 0.00 | 0.00 | 0.00 | 60 | 1020.0 |
| 20260510141906 | 10 | 22 | 0.0 | 4.8 | 0.00 | 0.00 | 0.00 | 58 | 1020.0 |
| 20260510141631 | 10 | 122 | 0.0 | 8.0 | 0.00 | 0.00 | 0.00 | 60 | 1020.0 |
| 20260510141126 | 9 | 6 | 0.0 | 8.0 | 0.00 | 0.00 | 0.00 | 58 | 1019.9 |
| 20260510140349 | 10 | 23 | 0.0 | 6.4 | 0.00 | 0.00 | 0.00 | 59 | 1020.0 |
| 20260510135843 | 10 | 134 | 0.0 | 1.6 | 0.00 | 0.00 | 0.00 | 60 | 1019.9 |
| 20260510135337 | 9 | 335 | 0.0 | 4.8 | 0.00 | 0.00 | 0.00 | 63 | 1019.8 |
| 20260510134831 | 9 | 339 | 0.0 | 4.8 | 0.00 | 0.00 | 0.00 | 61 | 1019.9 |
| 20260510134325 | 8 | 315 | 0.0 | 3.2 | 0.00 | 0.00 | 0.00 | 64 | 1019.8 |
| 20260510133824 | 8 | 357 | 0.0 | 1.6 | 0.00 | 0.00 | 0.00 | 66 | 1019.8 |
| 20260510133819 | 8 | 9 | 0.0 | 3.2 | 0.00 | 0.00 | 0.00 | 65 | 1019.8 |
| 20260510133037 | 8 | 331 | 0.0 | 1.6 | 0.00 | 0.00 | 0.00 | 68 | 1019.8 |
| 20260510132301 | 7 | 16 | 0.0 | 1.6 | 0.00 | 0.00 | 0.00 | 71 | 1019.8 |
| 20260510132026 | 7 | 40 | 0.0 | 0.0 | 0.00 | 0.00 | 0.00 | 73 | 1019.7 |
| 20260510131249 | 7 | 232 | 0.0 | 0.0 | 0.00 | 0.00 | 0.00 | 77 | 1019.7 |
| 20260510130743 | 6 | 232 | 0.0 | 0.0 | 0.00 | 0.00 | 0.00 | 77 | 1019.7 |
| 20260510130237 | 6 | 15 | 0.0 | 0.0 | 0.00 | 0.00 | 0.00 | 79 | 1019.7 |
| 20260510130001 | 6 | 15 | 0.0 | 0.0 | 0.00 | 0.00 | 0.00 | 80 | 1019.7 |
| 20260510125225 | 5 | 15 | 0.0 | 0.0 | 0.00 | 0.00 | 0.00 | 79 | 1019.5 |
| 20260510124718 | 5 | 15 | 0.0 | 0.0 | 0.00 | 0.00 | 0.00 | 79 | 1019.5 |
| 20260510124212 | 5 | 15 | 0.0 | 0.0 | 0.00 | 0.00 | 0.00 | 81 | 1019.4 |
| 20260510123707 | 5 | 15 | 0.0 | 0.0 | 0.00 | 0.00 | 0.00 | 83 | 1019.3 |
| 20260510123200 | 5 | 15 | 0.0 | 0.0 | 0.00 | 0.00 | 0.00 | 85 | 1019.2 |
| 20260510122655 | 4 | 14 | 0.0 | 3.2 | 0.00 | 0.00 | 0.00 | 86 | 1019.2 |
| 20260510122149 | 4 | 15 | 0.0 | 3.2 | 0.00 | 0.00 | 0.00 | 86 | 1019.1 |
| 20260510121643 | 3 | 15 | 0.0 | 0.0 | 0.00 | 0.00 | 0.00 | 86 | 1019.1 |
| 20260510121137 | 3 | 15 | 0.0 | 0.0 | 0.00 | 0.00 | 0.00 | 87 | 1019.1 |
| 20260510120632 | 3 | 15 | 0.0 | 0.0 | 0.00 | 0.00 | 0.00 | 87 | 1019.1 |
| 20260510120358 | 3 | 15 | 0.0 | 0.0 | 0.00 | 0.00 | 0.00 | 88 | 1019.0 |
| 20260510115619 | 2 | 15 | 0.0 | 0.0 | 0.00 | 0.00 | 0.00 | 89 | 1019.0 |
| 20260510115113 | 2 | 15 | 0.0 | 0.0 | 0.00 | 0.00 | 0.00 | 89 | 1018.9 |
| 20260510114842 | 2 | 15 | 0.0 | 0.0 | 0.00 | 0.00 | 0.00 | 89 | 1018.9 |
| 20260510114107 | 2 | 15 | 0.0 | 0.0 | 0.00 | 0.00 | 0.00 | 88 | 1018.8 |
| 20260510113838 | 1 | 15 | 0.0 | 0.0 | 0.00 | 0.00 | 0.00 | 88 | 1018.8 |
| 20260510113105 | 1 | 15 | 0.0 | 0.0 | 0.00 | 0.00 | 0.00 | 88 | 1018.7 |
| 20260510112604 | 1 | 15 | 0.0 | 0.0 | 0.00 | 0.00 | 0.00 | 89 | 1018.7 |
| 20260510112102 | 1 | 15 | 0.0 | 0.0 | 0.00 | 0.00 | 0.00 | 89 | 1018.7 |
| 20260510111558 | 1 | 15 | 0.0 | 0.0 | 0.00 | 0.00 | 0.00 | 89 | 1018.6 |
| 20260510111329 | 1 | 15 | 0.0 | 0.0 | 0.00 | 0.00 | 0.00 | 89 | 1018.4 |
| 20260510110558 | 1 | 15 | 0.0 | 0.0 | 0.00 | 0.00 | 0.00 | 89 | 1018.4 |
| 20260510110057 | 1 | 15 | 0.0 | 0.0 | 0.00 | 0.00 | 0.00 | 89 | 1018.3 |
| 20260510105557 | 1 | 15 | 0.0 | 0.0 | 0.00 | 0.00 | 0.00 | 89 | 1018.3 |
| 20260510105101 | 1 | 15 | 0.0 | 0.0 | 0.00 | 0.00 | 0.00 | 89 | 1018.2 |
| 20260510104554 | 1 | 15 | 0.0 | 0.0 | 0.00 | 0.00 | 0.00 | 89 | 1018.1 |
| 20260510104052 | 1 | 15 | 0.0 | 0.0 | 0.00 | 0.00 | 0.00 | 88 | 1018.1 |
| 20260510103553 | 1 | 15 | 0.0 | 0.0 | 0.00 | 0.00 | 0.00 | 88 | 1018.0 |
| 20260510103052 | 1 | 15 | 0.0 | 0.0 | 0.00 | 0.00 | 0.00 | 88 | 1018.0 |
| 20260510102552 | 1 | 15 | 0.0 | 0.0 | 0.00 | 0.00 | 0.00 | 88 | 1017.8 |
| 20260510102052 | 1 | 15 | 0.0 | 0.0 | 0.00 | 0.03 | 0.00 | 88 | 1017.7 |
| 20260510101554 | 1 | 15 | 0.0 | 0.0 | 0.00 | 0.03 | 0.00 | 87 | 1017.6 |
| 20260510101319 | 1 | 15 | 0.0 | 0.0 | 0.00 | 0.03 | 0.00 | 88 | 1017.5 |
| 20260510100543 | 1 | 15 | 0.0 | 0.0 | 0.00 | 0.05 | 0.00 | 89 | 1017.5 |
| 20260510100041 | 1 | 15 | 0.0 | 0.0 | 0.00 | 0.05 | 0.00 | 90 | 1017.6 |
| 20260510095814 | 1 | 15 | 0.0 | 0.0 | 0.00 | 0.05 | 0.00 | 90 | 1017.5 |
| 20260510095042 | 0 | 15 | 0.0 | 0.0 | 0.00 | 0.05 | 0.00 | 89 | 1017.3 |
| 20260510094539 | 1 | 15 | 0.0 | 0.0 | 0.00 | 0.05 | 0.00 | 87 | 1017.1 |
| 20260510094039 | 1 | 15 | 0.0 | 0.0 | 0.00 | 0.05 | 0.00 | 87 | 1017.1 |
| 20260510093538 | 1 | 14 | 0.0 | 0.0 | 0.00 | 0.08 | 0.00 | 87 | 1017.1 |
| 20260510093041 | 1 | 15 | 0.0 | 0.0 | 0.00 | 0.08 | 0.00 | 86 | 1017.0 |
| 20260510092541 | 1 | 15 | 0.0 | 0.0 | 0.00 | 0.08 | 0.00 | 87 | 1017.0 |
| 20260510092039 | 1 | 15 | 0.0 | 0.0 | 0.00 | 0.10 | 0.00 | 87 | 1016.9 |
| 20260510091537 | 1 | 15 | 0.0 | 0.0 | 0.00 | 0.10 | 0.00 | 88 | 1016.8 |
| 20260510091307 | 1 | 15 | 0.0 | 0.0 | 0.00 | 0.10 | 0.00 | 90 | 1016.7 |
| 20260510090536 | 1 | 15 | 0.0 | 0.0 | 0.00 | 0.10 | 0.00 | 89 | 1016.8 |
| 20260510090032 | 1 | 15 | 0.0 | 0.0 | 0.00 | 0.10 | 0.00 | 90 | 1016.8 |
| 20260510085531 | 1 | 15 | 0.0 | 0.0 | 0.00 | 0.10 | 0.00 | 89 | 1016.7 |
| 20260510085030 | 1 | 15 | 0.0 | 0.0 | 0.00 | 0.10 | 0.00 | 89 | 1016.6 |
| 20260510084530 | 1 | 15 | 0.0 | 0.0 | 0.00 | 0.10 | 0.00 | 89 | 1016.4 |
| 20260510084028 | 1 | 15 | 0.0 | 0.0 | 0.00 | 0.10 | 0.00 | 89 | 1016.3 |
| 20260510083528 | 1 | 15 | 0.0 | 0.0 | 0.00 | 0.10 | 0.00 | 89 | 1016.3 |
| 20260510083027 | 1 | 15 | 0.0 | 0.0 | 0.00 | 0.10 | 0.00 | 89 | 1016.3 |
| 20260510082526 | 1 | 15 | 0.0 | 0.0 | 0.00 | 0.10 | 0.00 | 90 | 1016.2 |
| 20260510082026 | 1 | 15 | 0.0 | 0.0 | 0.00 | 0.10 | 0.00 | 90 | 1016.2 |
| 20260510081526 | 0 | 15 | 0.0 | 0.0 | 0.00 | 0.10 | 0.00 | 90 | 1016.1 |
| 20260510081023 | 0 | 15 | 0.0 | 0.0 | 0.00 | 0.10 | 0.00 | 90 | 1015.8 |
| 20260510080756 | 0 | 15 | 0.0 | 0.0 | 0.00 | 0.10 | 0.00 | 90 | 1015.9 |
| 20260510080023 | 0 | 15 | 0.0 | 0.0 | 0.00 | 0.10 | 0.00 | 90 | 1015.8 |
| 20260510075523 | 0 | 15 | 0.0 | 0.0 | 0.00 | 0.10 | 0.00 | 90 | 1015.8 |
| 20260510075021 | 0 | 15 | 0.0 | 0.0 | 0.00 | 0.10 | 0.00 | 90 | 1015.8 |
| 20260510074520 | 0 | 15 | 0.0 | 0.0 | 0.00 | 0.10 | 0.00 | 90 | 1015.8 |
| 20260510074252 | 0 | 15 | 0.0 | 0.0 | 0.00 | 0.10 | 0.00 | 90 | 1015.8 |
| 20260510073520 | 0 | 15 | 0.0 | 0.0 | 0.00 | 0.10 | 0.00 | 89 | 1015.7 |
| 20260510073018 | 0 | 15 | 0.0 | 0.0 | 0.00 | 0.10 | 0.00 | 89 | 1015.7 |
| 20260510072517 | 0 | 15 | 0.0 | 0.0 | 0.00 | 0.10 | 0.00 | 88 | 1015.8 |
| 20260510072247 | 0 | 15 | 0.0 | 0.0 | 0.00 | 0.10 | 0.00 | 88 | 1015.8 |
| 20260510071746 | 0 | 15 | 0.0 | 0.0 | 0.00 | 0.10 | 0.00 | 87 | 1015.8 |
| 20260510071013 | 1 | 15 | 0.0 | 0.0 | 0.00 | 0.10 | 0.00 | 86 | 1015.8 |
| 20260510070514 | 1 | 15 | 0.0 | 0.0 | 0.00 | 0.10 | 0.00 | 85 | 1015.8 |
| 20260510070016 | 1 | 15 | 0.0 | 0.0 | 0.00 | 0.10 | 0.00 | 86 | 1015.8 |
| 20260510065517 | 1 | 15 | 0.0 | 0.0 | 0.00 | 0.10 | 0.00 | 86 | 1015.8 |
| 20260510065015 | 1 | 15 | 0.0 | 0.0 | 0.00 | 0.10 | 0.00 | 85 | 1015.7 |
| 20260510064512 | 1 | 15 | 0.0 | 0.0 | 0.00 | 0.10 | 0.00 | 86 | 1015.7 |
| 20260510064009 | 1 | 15 | 0.0 | 0.0 | 0.00 | 0.10 | 0.00 | 86 | 1015.7 |
| 20260510063740 | 1 | 15 | 0.0 | 0.0 | 0.00 | 0.10 | 0.00 | 85 | 1015.7 |
| 20260510063010 | 1 | 14 | 0.0 | 0.0 | 0.00 | 0.10 | 0.00 | 86 | 1015.7 |
| 20260510062506 | 1 | 15 | 0.0 | 0.0 | 0.00 | 0.10 | 0.00 | 84 | 1015.6 |
| 20260510062004 | 2 | 15 | 0.0 | 0.0 | 0.00 | 0.10 | 0.00 | 84 | 1015.7 |
| 20260510061509 | 2 | 15 | 0.0 | 0.0 | 0.00 | 0.10 | 0.00 | 83 | 1015.6 |
| 20260510061504 | 2 | 15 | 0.0 | 0.0 | 0.00 | 0.10 | 0.00 | 83 | 1015.7 |
| 20260510060505 | 2 | 15 | 0.0 | 0.0 | 0.00 | 0.10 | 0.00 | 82 | 1015.6 |
| 20260510060005 | 3 | 15 | 0.0 | 0.0 | 0.00 | 0.10 | 0.00 | 81 | 1015.6 |
| 20260510055504 | 3 | 15 | 0.0 | 0.0 | 0.00 | 0.10 | 0.00 | 81 | 1015.6 |
| 20260510055005 | 3 | 15 | 0.0 | 0.0 | 0.00 | 0.10 | 0.00 | 79 | 1015.5 |
| 20260510054506 | 3 | 14 | 0.0 | 0.0 | 0.00 | 0.10 | 0.00 | 77 | 1015.5 |
| 20260510054001 | 3 | 15 | 0.0 | 0.0 | 0.00 | 0.10 | 0.00 | 74 | 1015.4 |
| 20260510053500 | 3 | 15 | 0.0 | 0.0 | 0.00 | 0.10 | 0.00 | 74 | 1015.4 |
| 20260510053233 | 3 | 14 | 0.0 | 0.0 | 0.00 | 0.10 | 0.00 | 75 | 1015.4 |
| 20260510052501 | 3 | 15 | 0.0 | 0.0 | 0.00 | 0.10 | 0.00 | 75 | 1015.4 |
| 20260510052001 | 3 | 15 | 0.0 | 0.0 | 0.00 | 0.10 | 0.00 | 74 | 1015.4 |
| 20260510051731 | 3 | 15 | 0.0 | 0.0 | 0.00 | 0.10 | 0.00 | 74 | 1015.4 |
| 20260510051002 | 3 | 15 | 0.0 | 0.0 | 0.00 | 0.10 | 0.00 | 74 | 1015.4 |
| 20260510050731 | 3 | 15 | 0.0 | 0.0 | 0.00 | 0.10 | 0.00 | 70 | 1015.4 |
| 20260510050232 | 3 | 15 | 0.0 | 0.0 | 0.00 | 0.10 | 0.00 | 67 | 1015.3 |
| 20260510045456 | 3 | 15 | 0.0 | 0.0 | 0.00 | 0.10 | 0.10 | 66 | 1015.2 |
| 20260510044950 | 4 | 15 | 0.0 | 0.0 | 0.00 | 0.10 | 0.10 | 65 | 1015.2 |
| 20260510044443 | 5 | 15 | 0.0 | 0.0 | 0.00 | 0.10 | 0.10 | 64 | 1015.2 |
| 20260510043938 | 5 | 15 | 0.0 | 0.0 | 0.00 | 0.10 | 0.10 | 64 | 1015.2 |
| 20260510043432 | 5 | 15 | 0.0 | 0.0 | 0.00 | 0.10 | 0.10 | 64 | 1015.2 |
| 20260510042926 | 6 | 15 | 0.0 | 0.0 | 0.00 | 0.10 | 0.10 | 63 | 1015.1 |
| 20260510042420 | 6 | 15 | 0.0 | 0.0 | 0.00 | 0.10 | 0.10 | 61 | 1015.1 |
| 20260510042144 | 6 | 15 | 0.0 | 0.0 | 0.00 | 0.10 | 0.10 | 62 | 1015.1 |
| 20260510041408 | 5 | 15 | 0.0 | 0.0 | 0.00 | 0.10 | 0.10 | 62 | 1015.1 |
| 20260510040901 | 5 | 15 | 0.0 | 0.0 | 0.00 | 0.10 | 0.10 | 61 | 1015.0 |
| 20260510040356 | 6 | 15 | 0.0 | 0.0 | 0.00 | 0.10 | 0.10 | 60 | 1015.1 |
| 20260510035850 | 6 | 14 | 0.0 | 0.0 | 0.00 | 0.10 | 0.10 | 61 | 1015.1 |
| 20260510035343 | 6 | 15 | 0.0 | 0.0 | 0.00 | 0.10 | 0.10 | 58 | 1015.1 |
| 20260510034837 | 6 | 15 | 0.0 | 0.0 | 0.00 | 0.10 | 0.10 | 58 | 1015.1 |
| 20260510034332 | 7 | 15 | 0.0 | 0.0 | 0.00 | 0.10 | 0.10 | 56 | 1015.0 |
| 20260510034057 | 7 | 15 | 0.0 | 0.0 | 0.00 | 0.10 | 0.10 | 55 | 1015.0 |
| 20260510033320 | 8 | 15 | 0.0 | 0.0 | 0.00 | 0.10 | 0.10 | 52 | 1015.0 |
| 20260510032814 | 8 | 15 | 0.0 | 0.0 | 0.00 | 0.10 | 0.10 | 51 | 1014.9 |
| 20260510032308 | 8 | 15 | 0.0 | 0.0 | 0.00 | 0.10 | 0.10 | 50 | 1014.8 |
| 20260510032034 | 8 | 15 | 0.0 | 0.0 | 0.00 | 0.10 | 0.10 | 50 | 1014.7 |
| 20260510031526 | 8 | 15 | 0.0 | 0.0 | 0.00 | 0.10 | 0.10 | 50 | 1014.7 |
| 20260510030750 | 8 | 16 | 0.0 | 0.0 | 0.00 | 0.10 | 0.10 | 51 | 1014.6 |
| 20260510030244 | 8 | 19 | 0.0 | 0.0 | 0.00 | 0.10 | 0.10 | 50 | 1014.5 |
| 20260510030010 | 8 | 20 | 0.0 | 1.6 | 0.00 | 0.10 | 0.10 | 51 | 1014.4 |
| 20260510025232 | 8 | 20 | 0.0 | 1.6 | 0.00 | 0.10 | 0.10 | 50 | 1014.3 |
| 20260510024725 | 8 | 20 | 0.0 | 0.0 | 0.00 | 0.10 | 0.10 | 51 | 1014.2 |
| 20260510024219 | 7 | 72 | 0.0 | 0.0 | 0.00 | 0.10 | 0.10 | 52 | 1014.1 |
| 20260510023714 | 8 | 72 | 0.0 | 0.0 | 0.00 | 0.10 | 0.10 | 52 | 1014.0 |
| 20260510023208 | 8 | 72 | 0.0 | 0.0 | 0.00 | 0.10 | 0.10 | 52 | 1013.8 |
| 20260510022701 | 8 | 72 | 0.0 | 0.0 | 0.00 | 0.10 | 0.10 | 53 | 1013.6 |
| 20260510022156 | 8 | 72 | 0.0 | 0.0 | 0.00 | 0.10 | 0.10 | 51 | 1013.5 |
| 20260510021650 | 8 | 72 | 0.0 | 0.0 | 0.00 | 0.10 | 0.10 | 51 | 1013.4 |
| 20260510021144 | 8 | 72 | 0.0 | 0.0 | 0.00 | 0.10 | 0.10 | 51 | 1013.4 |
| 20260510020638 | 9 | 126 | 0.0 | 0.0 | 0.00 | 0.10 | 0.10 | 50 | 1013.1 |
| 20260510020132 | 9 | 125 | 0.0 | 0.0 | 0.00 | 0.10 | 0.10 | 47 | 1013.0 |
| 20260510015625 | 10 | 126 | 0.0 | 1.6 | 0.00 | 0.10 | 0.10 | 45 | 1012.9 |
| 20260510015120 | 10 | 231 | 0.0 | 1.6 | 0.00 | 0.10 | 0.10 | 44 | 1012.8 |
| 20260510014614 | 11 | 105 | 0.0 | 1.6 | 0.00 | 0.10 | 0.10 | 44 | 1012.7 |
| 20260510014338 | 11 | 126 | 0.0 | 1.6 | 0.00 | 0.10 | 0.10 | 42 | 1012.6 |
| 20260510013833 | 11 | 125 | 0.0 | 1.6 | 0.00 | 0.10 | 0.10 | 41 | 1012.5 |
| 20260510013056 | 12 | 3 | 0.0 | 1.6 | 0.00 | 0.10 | 0.10 | 39 | 1012.4 |
| 20260510012821 | 12 | 11 | 0.0 | 1.6 | 0.00 | 0.10 | 0.10 | 38 | 1012.4 |
| 20260510012050 | 12 | 18 | 0.0 | 4.8 | 0.00 | 0.10 | 0.10 | 38 | 1012.3 |
| 20260510011547 | 12 | 34 | 0.0 | 4.8 | 0.00 | 0.10 | 0.10 | 37 | 1012.1 |
| 20260510011047 | 12 | 339 | 0.0 | 3.2 | 0.00 | 0.10 | 0.10 | 39 | 1012.1 |
| 20260510010818 | 12 | 150 | 0.0 | 4.8 | 0.00 | 0.10 | 0.10 | 37 | 1012.0 |
| 20260510010048 | 12 | 132 | 0.0 | 6.4 | 0.00 | 0.10 | 0.10 | 38 | 1012.0 |
| 20260510005548 | 13 | 210 | 0.0 | 8.0 | 0.00 | 0.10 | 0.10 | 39 | 1011.9 |
| 20260510005047 | 13 | 155 | 0.0 | 12.9 | 0.00 | 0.10 | 0.10 | 36 | 1011.8 |
| 20260510004547 | 13 | 304 | 0.0 | 12.9 | 0.00 | 0.10 | 0.10 | 38 | 1011.7 |
| 20260510004319 | 13 | 122 | 0.0 | 6.4 | 0.00 | 0.10 | 0.10 | 38 | 1011.7 |
| 20260510003818 | 14 | 136 | 1.6 | 6.4 | 0.00 | 0.10 | 0.10 | 37 | 1011.6 |
| 20260510003318 | 14 | 288 | 1.6 | 6.4 | 0.00 | 0.10 | 0.10 | 35 | 1011.6 |
| 20260510002547 | 15 | 0 | 1.6 | 9.7 | 0.00 | 0.10 | 0.10 | 36 | 1011.5 |
| 20260510002047 | 15 | 158 | 1.6 | 9.7 | 0.00 | 0.10 | 0.10 | 35 | 1011.4 |
| 20260510001547 | 15 | 124 | 1.6 | 8.0 | 0.00 | 0.10 | 0.10 | 35 | 1011.5 |
| 20260510001047 | 15 | 49 | 1.6 | 11.3 | 0.00 | 0.10 | 0.10 | 34 | 1011.4 |
| 20260510000547 | 15 | 141 | 1.6 | 11.3 | 0.00 | 0.10 | 0.10 | 33 | 1011.2 |
| 20260510000319 | 15 | 106 | 1.6 | 11.3 | 0.00 | 0.10 | 0.10 | 33 | 1011.1 |
| 20260509235543 | 15 | 4 | 1.6 | 9.7 | 0.00 | 0.10 | 0.10 | 31 | 1011.2 |
| 20260509235036 | 16 | 80 | 1.6 | 9.7 | 0.00 | 0.10 | 0.10 | 30 | 1011.1 |
| 20260509234531 | 16 | 318 | 0.0 | 6.4 | 0.00 | 0.10 | 0.10 | 30 | 1011.1 |
| 20260509234255 | 16 | 5 | 0.0 | 9.7 | 0.00 | 0.10 | 0.10 | 31 | 1011.0 |
| 20260509233518 | 16 | 13 | 1.6 | 9.7 | 0.00 | 0.10 | 0.10 | 29 | 1011.0 |
| 20260509233244 | 16 | 23 | 1.6 | 6.4 | 0.00 | 0.10 | 0.10 | 29 | 1010.9 |
| 20260509232506 | 16 | 41 | 1.6 | 6.4 | 0.00 | 0.10 | 0.10 | 29 | 1010.9 |
| 20260509232232 | 16 | 66 | 1.6 | 6.4 | 0.00 | 0.10 | 0.10 | 33 | 1010.8 |
| 20260509231457 | 16 | 7 | 1.6 | 9.7 | 0.00 | 0.10 | 0.10 | 30 | 1010.7 |
| 20260509231451 | 16 | 97 | 1.6 | 9.7 | 0.00 | 0.10 | 0.10 | 31 | 1010.7 |
| 20260509230442 | 16 | 5 | 1.6 | 16.1 | 0.00 | 0.10 | 0.10 | 32 | 1010.8 |
| 20260509225936 | 17 | 309 | 1.6 | 16.1 | 0.00 | 0.10 | 0.10 | 31 | 1010.5 |
| 20260509225430 | 16 | 351 | 1.6 | 9.7 | 0.00 | 0.10 | 0.10 | 31 | 1010.7 |
| 20260509224923 | 16 | 339 | 1.6 | 9.7 | 0.00 | 0.10 | 0.10 | 29 | 1010.6 |
| 20260509224418 | 17 | 224 | 1.6 | 9.7 | 0.00 | 0.10 | 0.10 | 29 | 1010.7 |
| 20260509223912 | 16 | 239 | 1.6 | 8.0 | 0.00 | 0.10 | 0.10 | 33 | 1010.5 |
| 20260509223407 | 16 | 22 | 1.6 | 9.7 | 0.00 | 0.10 | 0.10 | 31 | 1010.5 |
| 20260509222900 | 16 | 125 | 1.6 | 9.7 | 0.00 | 0.10 | 0.10 | 32 | 1010.5 |
| 20260509222353 | 17 | 110 | 1.6 | 9.7 | 0.00 | 0.10 | 0.10 | 29 | 1010.5 |
| 20260509221848 | 17 | 117 | 1.6 | 9.7 | 0.00 | 0.10 | 0.10 | 32 | 1010.5 |
| 20260509221613 | 17 | 25 | 1.6 | 12.9 | 0.00 | 0.10 | 0.10 | 32 | 1010.5 |
| 20260509220835 | 17 | 120 | 1.6 | 12.9 | 0.00 | 0.10 | 0.10 | 34 | 1010.4 |
| 20260509220330 | 17 | 27 | 1.6 | 9.7 | 0.00 | 0.10 | 0.10 | 32 | 1010.4 |
| 20260509215824 | 17 | 224 | 1.6 | 8.0 | 0.00 | 0.10 | 0.10 | 35 | 1010.2 |
| 20260509215318 | 17 | 126 | 1.6 | 8.0 | 0.00 | 0.10 | 0.10 | 31 | 1010.3 |
| 20260509214812 | 17 | 160 | 3.2 | 11.3 | 0.00 | 0.10 | 0.10 | 37 | 1010.3 |
| 20260509214305 | 17 | 54 | 3.2 | 11.3 | 0.00 | 0.10 | 0.10 | 31 | 1010.3 |
| 20260509213759 | 17 | 139 | 1.6 | 8.0 | 0.00 | 0.10 | 0.10 | 31 | 1010.2 |
| 20260509213255 | 17 | 169 | 1.6 | 8.0 | 0.00 | 0.10 | 0.10 | 33 | 1010.2 |
| 20260509213250 | 17 | 4 | 1.6 | 9.7 | 0.00 | 0.10 | 0.10 | 30 | 1010.2 |
| 20260509212242 | 17 | 333 | 1.6 | 9.7 | 0.00 | 0.10 | 0.10 | 29 | 1010.1 |
| 20260509211735 | 18 | 1 | 1.6 | 9.7 | 0.00 | 0.10 | 0.10 | 30 | 1010.1 |
| 20260509211230 | 17 | 166 | 1.6 | 9.7 | 0.00 | 0.10 | 0.10 | 30 | 1010.1 |
| 20260509210724 | 17 | 259 | 1.6 | 12.9 | 0.00 | 0.10 | 0.10 | 32 | 1010.1 |
| 20260509210218 | 17 | 5 | 1.6 | 12.9 | 0.00 | 0.10 | 0.10 | 32 | 1010.0 |
| 20260509205711 | 17 | 100 | 1.6 | 12.9 | 0.00 | 0.10 | 0.10 | 31 | 1010.1 |
| 20260509205206 | 16 | 139 | 3.2 | 12.9 | 0.00 | 0.10 | 0.10 | 31 | 1009.9 |
| 20260509204702 | 17 | 345 | 1.6 | 11.3 | 0.00 | 0.10 | 0.10 | 30 | 1009.8 |
| 20260509204657 | 16 | 13 | 1.6 | 14.5 | 0.00 | 0.10 | 0.10 | 31 | 1009.9 |
| 20260509203918 | 17 | 162 | 1.6 | 14.5 | 0.00 | 0.10 | 0.10 | 31 | 1009.9 |
| 20260509203142 | 17 | 347 | 1.6 | 9.7 | 0.00 | 0.10 | 0.10 | 33 | 1009.8 |
| 20260509202636 | 17 | 333 | 1.6 | 9.7 | 0.00 | 0.10 | 0.10 | 32 | 1009.8 |
| 20260509202130 | 17 | 5 | 1.6 | 9.7 | 0.00 | 0.10 | 0.10 | 34 | 1009.7 |
| 20260509201624 | 16 | 329 | 1.6 | 6.4 | 0.00 | 0.10 | 0.10 | 35 | 1009.8 |
| 20260509201118 | 16 | 323 | 1.6 | 14.5 | 0.00 | 0.10 | 0.10 | 31 | 1009.6 |
| 20260509200612 | 16 | 351 | 3.2 | 14.5 | 0.00 | 0.10 | 0.10 | 34 | 1009.7 |
| 20260509200105 | 16 | 32 | 4.8 | 12.9 | 0.00 | 0.10 | 0.10 | 31 | 1009.7 |
| 20260509195600 | 17 | 149 | 4.8 | 14.5 | 0.00 | 0.10 | 0.10 | 31 | 1009.7 |
| 20260509195054 | 17 | 195 | 3.2 | 14.5 | 0.00 | 0.10 | 0.10 | 36 | 1009.5 |